DW9113 Weather Reports


Display with metric or nautical units.
time (UTC)temp
F
wind
direction
speed
MPH
gust
MPH
rain 1hr
in
rain 24hr
in
rain mn
in
humidity
%
barometer
mb
20260507191527 49 360 1.0 9.0 0.00 0.00 0.00 50 1011.8
20260507190031 49 253 1.0 6.0 0.00 0.00 0.00 49 1011.9
20260507184528 49 261 1.0 10.0 0.00 0.00 0.00 51 1011.9
20260507183042 48 0 1.0 9.0 0.00 0.00 0.00 52 1012.0
20260507181530 48 248 0.0 5.0 0.00 0.00 0.00 56 1012.2
20260507180033 48 0 0.0 3.0 0.00 0.00 0.00 60 1012.1
20260507174529 49 252 1.0 7.0 0.00 0.00 0.00 58 1012.3
20260507173028 48 232 0.0 4.0 0.00 0.00 0.00 59 1012.6
20260507171528 48 0 0.0 9.0 0.00 0.00 0.00 61 1012.7
20260507170030 47 217 1.0 9.0 0.00 0.00 0.00 63 1012.9
20260507164530 44 0 0.0 7.0 0.00 0.00 0.00 66 1013.3
20260507163037 42 0 0.0 7.0 0.00 0.00 0.00 69 1013.3
20260507161539 41 0 0.0 4.0 0.00 0.00 0.00 71 1013.5
20260507160042 41 0 0.0 3.0 0.00 0.00 0.00 72 1013.7
20260507154531 41 0 0.0 7.0 0.00 0.00 0.00 72 1013.6
20260507153031 41 0 0.0 1.0 0.00 0.00 0.00 72 1013.6
20260507151527 42 0 0.0 1.0 0.00 0.00 0.00 71 1013.7
20260507150029 42 0 0.0 0.0 0.00 0.00 0.00 71 1013.5
20260507144534 42 0 0.0 2.0 0.00 0.00 0.00 72 1013.7
20260507143029 41 0 0.0 2.0 0.00 0.00 0.00 72 1013.7
20260507141527 41 0 0.0 0.0 0.00 0.00 0.00 72 1013.6
20260507140029 42 0 0.0 1.0 0.00 0.00 0.00 71 1013.7
20260507134528 42 0 0.0 4.0 0.00 0.00 0.00 70 1013.7
20260507133028 42 0 0.0 1.0 0.00 0.00 0.00 70 1013.5
20260507131532 42 0 0.0 2.0 0.00 0.00 0.00 68 1013.5
20260507130029 43 175 0.0 3.0 0.00 0.00 0.00 69 1013.4
20260507124546 42 0 0.0 6.0 0.00 0.00 0.00 69 1013.3
20260507123030 42 0 0.0 2.0 0.00 0.00 0.00 69 1013.3
20260507121530 40 0 0.0 4.0 0.00 0.00 0.00 62 1013.3
20260507120029 36 0 0.0 4.0 0.00 0.00 0.00 50 1013.2
20260507114529 33 0 0.0 0.0 0.00 0.00 0.00 52 1012.9
20260507113028 32 0 0.0 0.0 0.00 0.00 0.00 56 1012.8
20260507111530 31 0 0.0 0.0 0.00 0.00 0.00 59 1012.6
20260507110031 31 0 0.0 0.0 0.00 0.00 0.00 60 1012.3
20260507104528 31 0 0.0 0.0 0.00 0.00 0.00 61 1012.3
20260507103029 31 0 0.0 0.0 0.00 0.00 0.00 62 1012.3
20260507101527 31 0 0.0 0.0 0.00 0.00 0.00 62 1012.2
20260507100029 31 0 0.0 0.0 0.00 0.00 0.00 62 1012.2
20260507094530 31 0 0.0 0.0 0.00 0.00 0.00 66 1012.2
20260507093036 31 0 0.0 0.0 0.00 0.00 0.00 68 1012.3
20260507091538 31 0 0.0 0.0 0.00 0.00 0.00 71 1012.3
20260507090026 31 0 0.0 0.0 0.00 0.00 0.00 74 1012.4
20260507084533 32 0 0.0 0.0 0.00 0.00 0.00 76 1012.4
20260507083030 32 0 0.0 0.0 0.00 0.00 0.00 77 1012.5
20260507081529 33 0 0.0 0.0 0.00 0.00 0.00 77 1012.6
20260507080028 34 0 0.0 0.0 0.00 0.00 0.00 77 1012.7
20260507074529 35 0 0.0 0.0 0.00 0.00 0.00 77 1012.7
20260507073030 36 0 0.0 0.0 0.00 0.00 0.00 75 1012.9
20260507071528 37 0 0.0 0.0 0.00 0.00 0.00 74 1012.9
20260507070034 38 0 0.0 0.0 0.00 0.00 0.00 73 1013.0
20260507064529 39 0 0.0 0.0 0.00 0.00 0.00 72 1013.1
20260507063040 39 0 0.0 0.0 0.00 0.00 0.00 72 1013.1
20260507061532 39 0 0.0 0.0 0.00 0.00 0.00 73 1013.1
20260507060040 38 0 0.0 0.0 0.00 0.00 0.00 74 1013.3
20260507054527 38 0 0.0 0.0 0.00 0.00 0.00 74 1013.4
20260507053028 38 0 0.0 0.0 0.00 0.00 0.00 74 1013.4
20260507051532 38 0 0.0 0.0 0.00 0.00 0.00 75 1013.3
20260507050034 38 0 0.0 0.0 0.00 0.00 0.00 76 1013.3
20260507044528 37 0 0.0 0.0 0.00 0.00 0.00 77 1013.2
20260507043029 37 0 0.0 0.0 0.00 0.00 0.00 77 1013.1
20260507041528 38 0 0.0 0.0 0.00 0.00 0.00 77 1013.2
20260507040028 39 0 0.0 0.0 0.00 0.00 0.00 76 1013.1
20260507034535 40 0 0.0 0.0 0.00 0.00 0.00 74 1013.1
20260507033030 42 0 0.0 0.0 0.00 0.00 0.00 74 1013.1
20260507031527 42 0 0.0 0.0 0.00 0.00 0.00 73 1013.1
20260507030030 42 0 0.0 0.0 0.00 0.00 0.00 69 1013.2
20260507024528 42 0 0.0 1.0 0.00 0.00 0.00 68 1013.0
20260507023028 42 0 0.0 1.0 0.00 0.00 0.00 67 1012.7
20260507021529 42 0 0.0 4.0 0.00 0.00 0.00 66 1012.7
20260507020039 42 0 0.0 2.0 0.00 0.00 0.00 66 1012.7
20260507014529 43 0 0.0 0.0 0.00 0.00 0.00 65 1012.5
20260507013044 43 0 0.0 0.0 0.00 0.00 0.00 66 1012.4
20260507011526 43 0 0.0 0.0 0.00 0.00 0.00 65 1012.3
20260507010036 43 0 0.0 0.0 0.00 0.00 0.00 67 1012.2
20260507004530 43 0 0.0 1.0 0.00 0.00 0.00 65 1012.2
20260507003029 43 0 0.0 5.0 0.00 0.00 0.00 63 1012.3
20260507001530 44 0 0.0 1.0 0.00 0.00 0.00 60 1012.3
20260507000028 44 0 0.0 0.0 0.00 0.00 0.00 59 1012.3
20260506234535 45 0 0.0 0.0 0.00 0.00 0.00 57 1012.3
20260506233049 45 0 0.0 0.0 0.00 0.00 0.00 60 1012.4
20260506231530 46 0 0.0 0.0 0.00 0.00 0.00 58 1012.5
20260506230030 45 0 0.0 0.0 0.00 0.00 0.00 59 1012.5
20260506224528 46 0 0.0 1.0 0.00 0.00 0.00 57 1012.6
20260506223028 46 0 0.0 1.0 0.00 0.00 0.00 58 1012.6
20260506221530 46 0 0.0 1.0 0.00 0.00 0.00 57 1012.7
20260506220031 46 0 0.0 2.0 0.00 0.00 0.00 58 1012.8
20260506214529 46 0 0.0 2.0 0.00 0.00 0.00 57 1012.7
20260506213028 46 0 0.0 3.0 0.00 0.00 0.00 57 1012.7
20260506211530 46 0 0.0 2.0 0.00 0.00 0.00 57 1012.7
20260506210034 46 0 0.0 2.0 0.00 0.00 0.00 56 1012.7
20260506204532 45 0 0.0 2.0 0.00 0.00 0.00 57 1012.9
20260506203026 47 0 0.0 1.0 0.00 0.00 0.00 55 1012.9
20260506201533 47 0 0.0 3.0 0.00 0.00 0.00 55 1012.7
20260506200039 47 0 0.0 4.0 0.00 0.00 0.00 54 1012.7
20260506194530 47 0 0.0 3.0 0.00 0.00 0.00 51 1012.7
20260506193030 47 0 0.0 8.0 0.00 0.00 0.00 55 1012.7